Regional Weather Roundup
Issued by NWS

Home | Current Version | Previous Version | Graphics & Text | Print | Product List | Glossary On
Versions: 1 2 3 4 5 6 7 8 9 10 11 12 13 14 15 16 17 18 19 20 21 22 23 24 25 26 27 28 29 30 31 32 33 34 35 36 37 38 39 40 41 42 43 44 45 46 47 48 49 50
000
ASUS45 KCYS 301610
RWRWY

WYOMING REGIONAL WEATHER ROUNDUP
NATIONAL WEATHER SERVICE CHEYENNE WY
1000 AM MDT MON MAR 30 2015

NOTE:  "FAIR" INDICATES FEW OR NO CLOUDS BELOW 12,000 FEET
WITH NO SIGNIFICANT WEATHER AND/OR OBSTRUCTIONS TO VISIBILITY.

WYZ001-301700-
YELLOWSTONE NATIONAL PARK

CITY           SKY/WX    TMP DP  RH WIND       PRES   REMARKS
LK YELLOWSTONE   N/A     34  19  54 CALM      30.30R
W YELLOWSTONE  NOT AVBL

$$
WYZ002>013-054>058-071-098>099-301700-
NORTHERN WYOMING

CITY           SKY/WX    TMP DP  RH WIND       PRES   REMARKS
JACKSON        SUNNY     34  25  69 VRB5      30.30R WCI  30
CODY           FAIR      55  21  26 W9        30.16F
GREYBULL       FAIR      50  24  36 CALM      30.15S
WORLAND        FAIR     N/A N/A N/A MISG      30.16R
SHERIDAN       FAIR      57  29  34 NW18      30.13S
BUFFALO        NOT AVBL
GILLETTE       FAIR      56  28  34 NW18      30.12R
HULETT         FAIR      54  30  40 NW8       30.12S
NEWCASTLE      FAIR      54  25  32 NW15      30.11R

$$
WYZ014>020-022>026-101>103-301700-
CENTRAL WYOMING

CITY           SKY/WX    TMP DP  RH WIND       PRES   REMARKS
BIG PINEY      FAIR      42  19  39 SE3       30.30R
PINEDALE       FAIR      41  21  45 W3        30.30S
DUBOIS         FAIR      45  18  33 NW8       30.24S
LANDER         FAIR      53  25  33 N5        30.17S
RIVERTON       FAIR      56  19  23 NW14      30.18R
CASPER         FAIR      54  20  26 SW14      30.18R
DOUGLAS        FAIR      57  20  23 NW12      30.17R

$$
WYZ021-027>030-104>119-301700-
SOUTHERN WYOMING

CITY           SKY/WX    TMP DP  RH WIND       PRES   REMARKS
EVANSTON       FAIR      47  18  31 VRB5      30.31R
KEMMERER       FAIR      46  19  34 W7        30.31R
FORT BRIDGER   FAIR      54  15  21 W10       30.33R
ROCK SPRINGS   FAIR      46  15  28 W7        30.29R
DIXON          FAIR      46  20  35 CALM      30.32S
RAWLINS        FAIR      51  17  26 W20G28    30.24R
SARATOGA       FAIR      50  18  27 W7        30.28R
LARAMIE        FAIR      50  16  25 NW7       30.24R
CHEYENNE       FAIR      57  17  21 NW17G26   30.19R
TORRINGTON     FAIR      58  19  22 NW15      30.12R
PINE BLUFFS    FAIR      59  18  20 NW20G26   30.15S

$$



USA.gov is the U.S. government's official web portal to all federal, state and local government web resources and services.